| time (UTC) | temp F | wind direction | speed knots | gust knots | rain 1hr in | rain 24hr in | rain mn in | humidity % | barometer mb |
| 20260506214558 | 63 | 348 | 2.6 | 10.4 | 0.00 | 0.00 | 0.00 | 80 | 1013.0 |
| 20260506213057 | 64 | 5 | 2.6 | 11.3 | 0.00 | 0.00 | 0.00 | 79 | 1012.8 |
| 20260506211556 | 65 | 38 | 2.6 | 13.9 | 0.00 | 0.00 | 0.00 | 78 | 1012.8 |
| 20260506210056 | 66 | 346 | 2.6 | 10.4 | 0.00 | 0.00 | 0.00 | 76 | 1013.2 |
| 20260506204555 | 67 | 58 | 2.6 | 13.9 | 0.00 | 0.00 | 0.00 | 77 | 1013.2 |
| 20260506203054 | 68 | 333 | 5.2 | 13.0 | 0.00 | 0.00 | 0.00 | 77 | 1013.1 |
| 20260506201615 | 68 | 355 | 4.3 | 12.2 | 0.00 | 0.00 | 0.00 | 78 | 1013.0 |
| 20260506200053 | 68 | 59 | 4.3 | 11.3 | 0.00 | 0.00 | 0.00 | 79 | 1012.8 |
| 20260506194554 | 69 | 349 | 2.6 | 11.3 | 0.00 | 0.00 | 0.00 | 78 | 1012.6 |
| 20260506193054 | 71 | 322 | 3.5 | 15.6 | 0.00 | 0.00 | 0.00 | 76 | 1012.5 |
| 20260506191551 | 73 | 54 | 1.7 | 10.4 | 0.00 | 0.00 | 0.00 | 78 | 1012.4 |
| 20260506190051 | 74 | 342 | 2.6 | 9.6 | 0.00 | 0.00 | 0.00 | 78 | 1012.7 |
| 20260506184554 | 74 | 348 | 1.7 | 5.2 | 0.00 | 0.00 | 0.00 | 77 | 1012.6 |
| 20260506183050 | 74 | 11 | 0.9 | 7.0 | 0.00 | 0.00 | 0.00 | 77 | 1012.4 |
| 20260506181549 | 73 | 11 | 0.9 | 5.2 | 0.00 | 0.00 | 0.00 | 80 | 1012.5 |
| 20260506180048 | 72 | 67 | 0.0 | 7.8 | 0.00 | 0.00 | 0.00 | 81 | 1012.4 |
| 20260506174548 | 71 | 64 | 0.0 | 7.0 | 0.00 | 0.00 | 0.00 | 81 | 1012.3 |
| 20260506173105 | 70 | 74 | 1.7 | 7.0 | 0.00 | 0.00 | 0.00 | 82 | 1012.4 |
| 20260506171555 | 68 | 355 | 0.9 | 7.0 | 0.00 | 0.00 | 0.00 | 84 | 1012.6 |
| 20260506170048 | 67 | 80 | 4.3 | 8.7 | 0.00 | 0.00 | 0.00 | 85 | 1012.3 |
| 20260506164545 | 65 | 355 | 2.6 | 8.7 | 0.00 | 0.00 | 0.00 | 89 | 1012.9 |
| 20260506163100 | 63 | 77 | 3.5 | 11.3 | 0.00 | 0.00 | 0.00 | 91 | 1013.0 |
| 20260506161544 | 63 | 36 | 2.6 | 10.4 | 0.00 | 0.00 | 0.00 | 89 | 1013.9 |
| 20260506160038 | 64 | 331 | 4.3 | 13.9 | 0.00 | 0.00 | 0.00 | 89 | 1013.4 |
| 20260506154537 | 66 | 321 | 2.6 | 13.0 | 0.00 | 0.00 | 0.00 | 89 | 1013.3 |
| 20260506153029 | 68 | 334 | 3.5 | 13.9 | 0.00 | 0.00 | 0.00 | 86 | 1013.0 |
| 20260506151524 | 76 | 313 | 2.6 | 12.2 | 0.00 | 0.00 | 0.00 | 83 | 1012.1 |
| 20260506150022 | 76 | 178 | 0.0 | 3.5 | 0.00 | 0.00 | 0.00 | 89 | 1012.0 |
| 20260506144519 | 76 | 192 | 0.9 | 4.3 | 0.00 | 0.00 | 0.00 | 89 | 1011.2 |
| 20260506143018 | 76 | 192 | 0.0 | 2.6 | 0.00 | 0.00 | 0.00 | 89 | 1011.0 |
| 20260506141516 | 75 | 213 | 0.0 | 4.3 | 0.00 | 0.00 | 0.00 | 90 | 1010.4 |
| 20260506140115 | 75 | 159 | 0.0 | 0.9 | 0.00 | 0.00 | 0.00 | 92 | 1011.1 |
| 20260506134513 | 74 | 136 | 0.0 | 1.7 | 0.00 | 0.00 | 0.00 | 92 | 1010.5 |
| 20260506133011 | 74 | 171 | 0.0 | 1.7 | 0.00 | 0.00 | 0.00 | 92 | 1010.5 |
| 20260506131517 | 74 | 176 | 0.0 | 2.6 | 0.00 | 0.00 | 0.00 | 93 | 1010.3 |
| 20260506130008 | 74 | 103 | 0.9 | 6.1 | 0.00 | 0.00 | 0.00 | 93 | 1010.3 |
| 20260506124506 | 73 | 55 | 0.0 | 2.6 | 0.00 | 0.00 | 0.00 | 93 | 1010.0 |
| 20260506123006 | 73 | 308 | 0.0 | 2.6 | 0.00 | 0.00 | 0.00 | 93 | 1010.0 |
| 20260506121505 | 73 | 303 | 0.0 | 0.9 | 0.00 | 0.00 | 0.00 | 93 | 1010.1 |
| 20260506120005 | 73 | 303 | 0.0 | 1.7 | 0.00 | 0.00 | 0.00 | 93 | 1009.9 |
| 20260506114504 | 73 | 300 | 0.0 | 0.0 | 0.00 | 0.00 | 0.00 | 93 | 1009.9 |
| 20260506113004 | 73 | 209 | 0.0 | 0.0 | 0.00 | 0.00 | 0.00 | 93 | 1010.1 |
| 20260506111503 | 73 | 211 | 0.0 | 3.5 | 0.00 | 0.00 | 0.00 | 93 | 1010.1 |
| 20260506110005 | 73 | 181 | 0.0 | 0.9 | 0.00 | 0.00 | 0.00 | 92 | 1010.0 |
| 20260506104501 | 73 | 182 | 0.0 | 0.9 | 0.00 | 0.00 | 0.00 | 93 | 1009.8 |
| 20260506103100 | 73 | 182 | 0.0 | 3.5 | 0.00 | 0.00 | 0.00 | 93 | 1009.6 |
| 20260506101558 | 73 | 206 | 0.0 | 3.5 | 0.00 | 0.00 | 0.00 | 93 | 1009.6 |
| 20260506100057 | 74 | 197 | 0.0 | 0.9 | 0.00 | 0.00 | 0.00 | 93 | 1009.3 |
| 20260506094556 | 74 | 192 | 0.0 | 5.2 | 0.00 | 0.00 | 0.00 | 93 | 1009.0 |
| 20260506093110 | 74 | 202 | 0.9 | 5.2 | 0.00 | 0.00 | 0.00 | 92 | 1008.9 |
| 20260506091554 | 74 | 193 | 0.0 | 6.1 | 0.00 | 0.00 | 0.00 | 92 | 1008.7 |
| 20260506090058 | 74 | 185 | 0.0 | 3.5 | 0.00 | 0.00 | 0.00 | 92 | 1008.4 |
| 20260506084554 | 74 | 188 | 0.9 | 7.0 | 0.00 | 0.00 | 0.00 | 92 | 1008.6 |
| 20260506083053 | 74 | 198 | 0.0 | 6.1 | 0.00 | 0.00 | 0.00 | 92 | 1008.7 |
| 20260506081551 | 74 | 205 | 1.7 | 8.7 | 0.00 | 0.00 | 0.00 | 92 | 1008.5 |
| 20260506073049 | 74 | 206 | 0.0 | 4.3 | 0.00 | 0.00 | 0.00 | 91 | 1008.9 |
| 20260506071547 | 74 | 228 | 1.7 | 7.8 | 0.00 | 0.00 | 0.00 | 91 | 1009.1 |
| 20260506061557 | 74 | 188 | 0.9 | 7.8 | 0.00 | 0.00 | 0.00 | 91 | 1009.2 |
| 20260506044537 | 75 | 146 | 0.9 | 6.1 | 0.00 | 0.00 | 0.00 | 90 | 1009.0 |
| 20260506043035 | 75 | 214 | 0.9 | 6.1 | 0.00 | 0.00 | 0.00 | 89 | 1009.1 |
| 20260506041535 | 75 | 184 | 0.9 | 5.2 | 0.00 | 0.00 | 0.00 | 89 | 1009.0 |
| 20260506040034 | 76 | 221 | 1.7 | 6.1 | 0.00 | 0.00 | 0.00 | 88 | 1008.8 |
| 20260506034534 | 76 | 44 | 0.9 | 6.1 | 0.00 | 0.00 | 0.00 | 88 | 1008.6 |
| 20260506033034 | 76 | 117 | 0.0 | 5.2 | 0.00 | 0.00 | 0.00 | 88 | 1008.6 |
| 20260506031533 | 76 | 107 | 0.9 | 5.2 | 0.00 | 0.00 | 0.00 | 87 | 1008.5 |
| 20260506030034 | 77 | 158 | 0.0 | 6.1 | 0.00 | 0.00 | 0.00 | 86 | 1008.1 |
| 20260506024531 | 77 | 174 | 0.9 | 7.8 | 0.00 | 0.00 | 0.00 | 85 | 1008.0 |
| 20260506023031 | 77 | 118 | 0.9 | 5.2 | 0.00 | 0.00 | 0.00 | 84 | 1007.7 |
| 20260506021530 | 78 | 134 | 0.0 | 3.5 | 0.00 | 0.00 | 0.00 | 83 | 1007.4 |
| 20260506020100 | 78 | 125 | 0.0 | 6.1 | 0.00 | 0.00 | 0.00 | 83 | 1007.0 |
| 20260506014529 | 78 | 109 | 0.9 | 3.5 | 0.00 | 0.00 | 0.00 | 82 | 1007.0 |
| 20260506013029 | 79 | 209 | 0.0 | 2.6 | 0.00 | 0.00 | 0.00 | 81 | 1007.0 |
| 20260506011528 | 79 | 130 | 0.0 | 2.6 | 0.00 | 0.00 | 0.00 | 80 | 1007.0 |
| 20260506010030 | 80 | 149 | 0.0 | 2.6 | 0.00 | 0.00 | 0.00 | 79 | 1007.0 |
| 20260506004526 | 80 | 119 | 0.0 | 2.6 | 0.00 | 0.00 | 0.00 | 79 | 1007.0 |
| 20260506003026 | 81 | 155 | 0.0 | 3.5 | 0.00 | 0.00 | 0.00 | 78 | 1007.0 |
| 20260506001525 | 81 | 182 | 0.0 | 1.7 | 0.00 | 0.00 | 0.00 | 77 | 1007.1 |
| 20260506000041 | 81 | 182 | 0.0 | 7.0 | 0.00 | 0.00 | 0.00 | 77 | 1006.9 |
| 20260505234524 | 81 | 165 | 0.9 | 4.3 | 0.00 | 0.00 | 0.00 | 75 | 1006.7 |
| 20260505233022 | 82 | 217 | 0.0 | 7.0 | 0.00 | 0.00 | 0.00 | 75 | 1006.6 |
| 20260505231528 | 82 | 175 | 1.7 | 7.0 | 0.00 | 0.00 | 0.00 | 75 | 1006.5 |
| 20260505230034 | 83 | 136 | 0.9 | 4.3 | 0.00 | 0.00 | 0.00 | 75 | 1006.5 |
| 20260505224522 | 83 | 250 | 0.9 | 6.1 | 0.00 | 0.00 | 0.00 | 74 | 1006.5 |
| 20260505223021 | 83 | 203 | 0.9 | 3.5 | 0.00 | 0.00 | 0.00 | 75 | 1006.3 |
| 20260505221519 | 83 | 216 | 2.6 | 5.2 | 0.00 | 0.00 | 0.00 | 73 | 1006.3 |
| 20260505220018 | 83 | 190 | 0.9 | 8.7 | 0.00 | 0.00 | 0.00 | 73 | 1006.5 |